Location: Newark
(31.8769°N, 91.1411°W)
Time: 18:21:21
(UTC+00:00)

N. Korean satellite - Pass Details

Date: 27 January 2020
Orbit: 456 x 506 km, 97.2° (Epoch: 17 February)

Event Time Altitude Azimuth Distance (km) Brightness Sun altitude
Rises 11:12:23 0° 25° (NNE) 2,551 10.4 -23.1°
Reaches altitude 10° 11:14:39 10° 38° (NE) 1,676 9.6 -22.6°
Maximum altitude 11:17:46 27° 97° (E) 969 8.8 -22.0°
Drops below altitude 10° 11:20:54 10° 157° (SSE) 1,688 9.7 -21.3°
Sets 11:23:12 0° 170° (S) 2,574 10.5 -20.8°
